Torna al catalogo

STARLINK-30218

AttivoComunicazioniVLEO
NORAD 57604·PAYLOAD·🇺🇸 United States

Lanciato Aug 11, 2023 da Cape Canaveral Space Force Station

Loading…

Prossimi Passaggi (prossime 24 ore)

TLE

AggiornatoSource: CelesTrak SupGP

Epoca: Sep 14, 2026, 14:30 UTC

1 57604C 23119C   26257.60465278 -.00002058  00000+0 -74573-4 0  2571
2 57604  42.9996  94.7702 0001423 253.8382 247.1596 15.27571842    10

Traccia STARLINK-30218 in tempo reale con AllMySat

Download on the App Store